Weather in Isfara

Tajikistan     40˚07′32″N   70˚37′27″E
temp.,
°C
wind,
m/s
gust,
m/s
humid.,
%
clouds,
%
prec.,
mm/h
press.,
hPa
HPBL,
m
3 december, thu
thu323:00+6˚nne1253100 0.0 102533
02:00+6˚e2262100 0.1 102639
05:00+4˚ene2279100 0.5 1026105
08:00+5˚e2388100 2.4 1027120
11:00+5˚ene2290100 3.3 1026180
14:00+6˚ese2284100 0.1 1024211
17:00+7˚ene2283100 0.1 102553
20:00+6˚n0183100 0.0 102536
4 december, fri
fri423:00+5˚wsw4492100 0.1 1024189
02:00+5˚wsw3493100 2.4 1023177
05:00+5˚wsw4685100 3.2 1024229
08:00+6˚wsw5875100 0.3 1025243
11:00+7˚wsw7861100 0.3 1025571
14:00+8˚wsw81052100 0.0 1025974
17:00+6˚wsw81155100 0.1 1026508
20:00+5˚wsw71057100 0.0 1027462
5 december, sat
sat523:00+5˚wsw61057100 0.1 1028479
02:00+4˚wsw585497 0.0 1028222
05:00+3˚wsw585098 0.0 1029194
08:00+3˚wsw584996 0.0 1029247
11:00+5˚w674995 0.0 1027730
14:00+6˚wnw444998 0.0 1025793
17:00+4˚nw226176 0.0 102729
20:00+3˚n1167100 0.0 102922
6 december, sun
sun623:00+2˚ne1179100 0.0 102922
02:00+1˚e2281100 0.0 102925
05:00+1˚e228582 0.0 102929
08:00+1˚e22840 0.0 103031
11:00+4˚ene45640 0.0 1028659
14:00+6˚ene45550 0.0 1026893
17:00+5˚e336217 0.0 102659
20:00+3˚ese236873 0.0 102631
7 december, mon
mon723:00+3˚se226886 0.0 102424
02:00+3˚se1163100 0.0 102324
05:00+3˚ene1265100 0.1 102234
08:00+3˚e1169100 0.0 102326
11:00+3˚wnw3468100 0.0 1022384
14:00+5˚wnw465596 0.0 1022446
17:00+4˚w355998 0.0 1024278
20:00+4˚w4660100 0.0 1026297